DELTA 1 DEB, 10823

Orbit data source: Space-Track

DELTA 1 DEB, 10823 is space debris in SSO originally from a launch on Thu, 29 Jul 1976 UTC launched from the Air Force Western Test Range (AFWTR). Debris objects in space refer to the collection of defunct objects orbiting the Earth. Examples of debris include non-operational satellites, rocket bodies, and fragments generated from explosions, collisions, or faulty payload assembly.

Loading next visibility...
Identifier
10823, 1976-077BT
Orbit
SSO
Country
Flag of USUS
Related business
Manufacturer
Unknown
Mission
Spacecraft
Bus & Motor
Unknown
Mass
Unknown
Launch date (UTC)
1976-07-29 (50 years ago)
Launch vehicle
Unknown
Launch site
Air Force Western Test Range (AFWTR)
Object type
Payload
Rocket body
Debris
Shape & HBR
Unknown shape, 0.1 m
Radar Cross Section
Medium (>0.1 m² and <1 m²)

Expand to show TLE details & history
Last TLE update: 12 hours ago

TLE from 12 hours ago
0 DELTA 1 DEB
1 10823U 76077BT  26107.29384985  .00000082  00000-0  90442-3 0  9997
2 10823 101.9890  62.0965 0045584 139.7466  28.3771 12.43802378255710
Epoch: 2026-04-17T07:03Z
TLE epoch observation values (Epoch: 2026-04-17T07:03:08.627Z)
Latitude
11.3292°
Longitude
-66.69214°
Altitude
1,460.805 km
Speed
7.147 km/s
True Right ascension
16h 18m 05s
True Declination
11° 16' 09"
Sunlit
Object was in full shadow at epoch
Visualization orbit readout
Latitude
Unknown
Longitude
Unknown
Altitude
Unknown
Speed
Unknown
Apparent Right ascension
Unknown
Apparent Declination
Unknown
Sunlit
N/A
Visualization observer readout
Local Sidereal Time
01:42:55
Azimuth
Unknown
Elevation
Unknown
Doppler factor
Unknown
Orbital elements
Apogee altitude
1,523.952 km
Perigee altitude
1,452.237 km
Semi-major axis
7,866.232 km
Eccentricity
0.00456
Inclination
101.989°
RAAN
62.0965°
Arg. of periapsis
139.7466°
True anomaly
28.62661°
Mean anomaly
28.3771°
Eccentric anomaly
28.50173°
Mean motion
3.11095 °/min
Orbital period
115.72 mins
BSTAR
0.00090442
Loading maneuver chart data...
Computing Atmospheric mass density...
Loading historical data...
Loading historical data...
Loading historical data...
Loading historical data...
Loading historical data...
Loading historical data...
Loading historical data...

Documentation

Showing up to 5 results
|